Погода в Кирсе

Погода в Кирсе : погода сейчас, прогноз погоды и архив. Всё, что Вы хотите узнать о погоде в Кирсе!

Поиск расширенной информации на нашем сайте:

Другие новости

Новости СМИ2

Главная страница сайта

Новости сайта

03.07.2017

Напоминаем, что на нашем специализированном сайте Метеоцентр.Азия вы можете получить высокодетализированные автоматические прогнозы погоды по пунктам России, СНГ и мира в авиационном формате (включающие направление и скорость ветра, видимость, явления погоды, количество и форму облачности, нижнюю и верхнюю границу облачности).


Погода в Кирсе - сегодня

Время (UTC), дата Ветер
(°,м/с) 
Видим.   Явления Облачность Т
(°С)
Тd
(°С)
f(%) Тe
(°С)
Pmin
(гПа)
dP
(гПа)
Po
(мм)
O2
(г/м3)
Тmin Tmax R s Состояние
почвы
03 16.09.18 тихо () -0{01}  1800 м  дымка  10/0 верхняя 
[Cs]
+3.1 +2.8 98 +3  1022.7  751  299  +2.3        влажная 
15 16.09.18 тихо () -0{06}  20000 м    10/6 300 м кучево-дожд., верхняя 
[Cb cap|Cs]
+14.9 +8.4 65 +15  1016.7  -2  748  284    +18.3       
21 16.09.18 150 (ЮВ) 3-5{05}  20000 м    ясно 
+12.9 +6.8 66 +13  1013.2  -2.3  745  285           
03 17.09.18 160 (Ю) 2-4{05}  20000 м    10/0 средняя, верхняя 
[Ac As|Cs]
+11.6 +6.2 69 +12  1010.1  -1  742  286  +11.2        сухая 
15 17.09.18 250 (З) 3-5{09}  20000 м  в посл. час дождь  10/10 300 м 
[Frnb|Ns]
+11.2 +10.4 95 +13  1007.7  1.2  741  285    +17.4     
21 17.09.18 250 (З) 1-1{04}  20000 м    ясно 
+5.7 +5.5 99 +7  1013.8  1.7  745  293           
03 18.09.18 150 (ЮВ) 2-3{03}  0600 м  туман{морось}  ?/?  
[]
+4.8 +4.8 100 +4  1014.6  745  294  +4.8    0.3    влажная 
15 18.09.18 тихо () -0{03}  20000 м    10/4 300 м кучево-дожд., средняя, верхняя 
[Cb cap|Ac trans|Ci fib]
+9 +5.9 81 +9  1007.4  -2.4  740  288    +11.3       
03 19.09.18 100 (В) 1-2{02}  9000 м  в посл. час ливневой дождь  10/8 300 м кучево-дожд., средняя 
[Cb cap|Ac As]
+7.4 +6.7 95 +8  1002.5  -0.5  737  288  +6.5    0.3    влажная 
15 19.09.18 320 (СЗ) 1-2{05}  7000 м  в посл. час ливневой дождь  9/9 300 м кучево-дожд. 
[Cb cap]
+9.4 +9.2 99 +10  1004.1  738  286    +10.8  0.8     
03 20.09.18 320 (СЗ) 2-5{07}  20000 м    8/8 600 м кучево-дожд. 
[Cb cap]
+5.3 +3.6 89 +5  1007.1  740  292  +5.2    0.1    влажная 
15 20.09.18 тихо () -0{05}  20000 м    3/3 300 м 
[Sc]
+8.6 +5.8 83 +9  1009.7  1.1  742  289    +13.9       
18 20.09.18 тихо () -0{02}  20000 м    ясно 
+3.4 +2.4 93 +3  1011  0.9  743  295           
21 20.09.18 тихо () -0{01}  20000 м    ясно 
+0.9 +0.4 96 +1  1011.9  0.7  743  298           
03 21.09.18 тихо () -0{01}  20000 м    ясно 
-1.6 -2.2 96 -2  1014.2  1.1  745  302  -1.8        сухая 
15 21.09.18 250 (З) 1-2{05}  20000 м    9/0 средняя 
[Ac trans]
+12.1 +6.8 70 +13  1014.4  0.3  746  287    +15.2       
03 22.09.18 200 (Ю) 1-1{03}  4200 м  в посл. час ливневой дождь  10/10 300 м кучево-дожд. 
[Cb cap]
+12.4 +12.2 99 +18  1015.3  0.4  746  285  +11.5    0.6    влажная 
15 22.09.18 тихо () -0{06}  20000 м    8/0 верхняя 
[Ci fib]
+15.3 +11.5 78 +19  1015.7  747  283    +20.8       
03 23.09.18 тихо () -0{01}  5000 м  дымка  4/0 средняя 
[Ac trans]
+11.1 +10.7 97 +13  1015.7  -0.3  747  287  +8        сухая 
06 23.09.18 200 (Ю) 2-3{04}  20000 м    ясно 
+16.3 +13 81 +23  1014.6  -0.7  746  281           
18 23.09.18 190 (Ю) 4-6{07}  20000 м    ясно 
+17.7 +12.1 70 +22  1009.8  -0.9  743  279           
03 24.09.18 190 (Ю) 4-7{07}  20000 м    3/0 верхняя 
[Ci fib]
+14.5 +11.5 82 +17  1008.2  -0.4  741  281  +14.4        сухая 
15 24.09.18 190 (Ю) 2-3{11}  5000 м  слаб. ливневой дождь  10/8 300 м кучево-дожд., средняя 
[Cb cap|Ac As]
+13.1 +12.5 96 +19  1009.7  2.7  742  283    +21.5     
03 25.09.18 090 (В) 1-2{02}  0800 м  туман  ?/?  
+7.9 +7.9 100 +9  1010.3  -0.7  742  289  +7.4      сухая 
15 25.09.18 180 (Ю) 3-5{06}  4000 м  слаб. дождь  10/10 300 м 
[Frnb|Ns]
+11.8 +11.2 96 +15  1006.3  -1.9  740  284    +13.1     
Время (UTC), дата Ветер
(°,м/с) 
Видим.   Явления Облачность Т
(°С)
Тd
(°С)
f(%) Тe
(°С)
Pmin
(гПа)
dP
(гПа)
Po
(мм)
O2
(г/м3)
Тmin Tmax R s Состояние
почвы

Для получения пояснительной информации подведите курсор к названию столбца.

ПОГОДА в Кирсе - архив

Всё, что Вы хотите узнать о погоде в Кирсе - удобно и подробно!

Выберите нужную дату (начиная с 1 января 2015* года) и нажмите кнопку "Найти".
Будут отображены архивные сводки погоды по пункту Кирс, начиная с указанной даты.


Отображать данные в формате CSV (для использования в таблицах Excel)


Внимание! Наш архив погоды предназначен исключительно для личного некоммерческого использования в познавательных целях. Если Вам необходимы официальные справки о состоянии погоды (для производственных, юридических, коммерческих и т.п. целей), обращайтесь в органы Росгидромета.

*Примечание: данная дата относится к архиву по метеостанциям СССР (Россия, СНГ, Балтия).
Архив по метеостанциям Зарубежной Европы и Азии (кроме Китая) хранится 10 дней, по другим регионам земного шара (Китай, Африка, Америка, Австралия, Океания) - 1 день.

Кирс - район местоположения метеостанции


Название, широта, долгота, высота метеостанции:
Кирс 59.4°ш. 52.2°д. 169 м над ур. моря [Российская Федерация]

Дополнительная информация

В oтличие oт бoльшинства пoгoдных сайтoв мы публикуем пoдрoбную метеoинфoрмацию в детальнoм прoфессиoнальнoм фoрмате.

Характеристики температуры и влажнoсти вoздуха измеряются на высoте 2 м в тени вдали oт зданий и деревьев.
Скoрoсть ветра измеряется на высoте 10 м (на урoвне рoста челoвека скoрoсть ветра ниже в 1.5-2 раза). Если метеoстанция нахoдится в гoрoде или в лесу, тo скoрoсть ветра занижена на 2-4 м/с пo сравнению с oткрытым местoм. Скoрoсть ветра над акватoриями крупных рек и oзёр, а также на вершинах хoлмoв на 2-5 м/с выше, чем в oбычных услoвиях.
Атмoсфернoе давление в разных тoчках местнoсти мoжет значительнo oтличаться oт давления на метеoстанции, в зависимoсти oт услoвий рельефа (при пoдъёме на 10 м давление пoнижается примернo на 1 мм рт.ст.).